Year,Month,Day,Hour,Minute,Value (Times are PST for insolation in W/m^2)
2013,03,26,00,00,0.00
2013,03,26,00,01,0.00
2013,03,26,00,02,0.00
2013,03,26,00,03,0.00
2013,03,26,00,04,0.00
2013,03,26,00,05,0.00
2013,03,26,00,06,0.00
2013,03,26,00,07,0.00
2013,03,26,00,08,0.00
2013,03,26,00,09,0.00
2013,03,26,00,10,0.00
2013,03,26,00,11,0.00
2013,03,26,00,12,0.00
2013,03,26,00,13,0.00
2013,03,26,00,14,0.00
2013,03,26,00,15,0.00
2013,03,26,00,16,0.00
2013,03,26,00,17,0.00
2013,03,26,00,18,0.00
2013,03,26,00,19,0.00
2013,03,26,00,20,0.00
2013,03,26,00,21,0.00
2013,03,26,00,22,0.00
2013,03,26,00,23,0.00
2013,03,26,00,24,0.00
2013,03,26,00,25,0.00
2013,03,26,00,26,0.00
2013,03,26,00,27,0.00
2013,03,26,00,28,0.00
2013,03,26,00,29,0.00
2013,03,26,00,30,0.00
2013,03,26,00,31,0.00
2013,03,26,00,32,0.00
2013,03,26,00,33,0.00
2013,03,26,00,34,0.00
2013,03,26,00,35,0.00
2013,03,26,00,36,0.00
2013,03,26,00,37,0.00
2013,03,26,00,38,0.00
2013,03,26,00,39,0.00
2013,03,26,00,40,0.00
2013,03,26,00,41,0.00
2013,03,26,00,42,0.00
2013,03,26,00,43,0.00
2013,03,26,00,44,0.00
2013,03,26,00,45,0.00
2013,03,26,00,46,0.00
2013,03,26,00,47,0.00
2013,03,26,00,48,0.00
2013,03,26,00,49,0.00
2013,03,26,00,50,0.00
2013,03,26,00,51,0.00
2013,03,26,00,52,0.00
2013,03,26,00,53,0.00
2013,03,26,00,54,0.00
2013,03,26,00,55,0.00
2013,03,26,00,56,0.00
2013,03,26,00,57,0.00
2013,03,26,00,58,0.00
2013,03,26,00,59,0.00
2013,03,26,01,00,0.00
2013,03,26,01,01,0.00
2013,03,26,01,02,0.00
2013,03,26,01,03,0.00
2013,03,26,01,04,0.00
2013,03,26,01,05,0.00
2013,03,26,01,06,0.00
2013,03,26,01,07,0.00
2013,03,26,01,08,0.00
2013,03,26,01,09,0.00
2013,03,26,01,10,0.00
2013,03,26,01,11,0.00
2013,03,26,01,12,0.00
2013,03,26,01,13,0.00
2013,03,26,01,14,0.00
2013,03,26,01,15,0.00
2013,03,26,01,16,0.00
2013,03,26,01,17,0.00
2013,03,26,01,18,0.00
2013,03,26,01,19,0.00
2013,03,26,01,20,0.00
2013,03,26,01,21,0.00
2013,03,26,01,22,0.00
2013,03,26,01,23,0.00
2013,03,26,01,24,0.00
2013,03,26,01,25,0.00
2013,03,26,01,26,0.00
2013,03,26,01,27,0.00
2013,03,26,01,28,0.00
2013,03,26,01,29,0.00
2013,03,26,01,30,0.00
2013,03,26,01,31,0.00
2013,03,26,01,32,0.00
2013,03,26,01,33,0.00
2013,03,26,01,34,0.00
2013,03,26,01,35,0.00
2013,03,26,01,36,0.00
2013,03,26,01,37,0.00
2013,03,26,01,38,0.00
2013,03,26,01,39,0.00
2013,03,26,01,40,0.00
2013,03,26,01,41,0.00
2013,03,26,01,42,0.00
2013,03,26,01,43,0.00
2013,03,26,01,44,0.00
2013,03,26,01,45,0.00
2013,03,26,01,46,0.00
2013,03,26,01,47,0.00
2013,03,26,01,48,0.00
2013,03,26,01,49,0.00
2013,03,26,01,50,0.00
2013,03,26,01,51,0.00
2013,03,26,01,52,0.00
2013,03,26,01,53,0.00
2013,03,26,01,54,0.00
2013,03,26,01,55,0.00
2013,03,26,01,56,0.00
2013,03,26,01,57,0.00
2013,03,26,01,58,0.00
2013,03,26,01,59,0.00
2013,03,26,02,00,0.00
2013,03,26,02,01,0.00
2013,03,26,02,02,0.00
2013,03,26,02,03,0.00
2013,03,26,02,04,0.00
2013,03,26,02,05,0.00
2013,03,26,02,06,0.00
2013,03,26,02,07,0.00
2013,03,26,02,08,0.00
2013,03,26,02,09,0.00
2013,03,26,02,10,0.00
2013,03,26,02,11,0.00
2013,03,26,02,12,0.00
2013,03,26,02,13,0.00
2013,03,26,02,14,0.00
2013,03,26,02,15,0.00
2013,03,26,02,16,0.00
2013,03,26,02,17,0.00
2013,03,26,02,18,0.00
2013,03,26,02,19,0.00
2013,03,26,02,20,0.00
2013,03,26,02,21,0.00
2013,03,26,02,22,0.00
2013,03,26,02,23,0.00
2013,03,26,02,24,0.00
2013,03,26,02,25,0.00
2013,03,26,02,26,0.00
2013,03,26,02,27,0.00
2013,03,26,02,28,0.00
2013,03,26,02,29,0.00
2013,03,26,02,30,0.00
2013,03,26,02,31,0.00
2013,03,26,02,32,0.00
2013,03,26,02,33,0.00
2013,03,26,02,34,0.00
2013,03,26,02,35,0.00
2013,03,26,02,36,0.00
2013,03,26,02,37,0.00
2013,03,26,02,38,0.00
2013,03,26,02,39,0.00
2013,03,26,02,40,0.00
2013,03,26,02,41,0.00
2013,03,26,02,42,0.00
2013,03,26,02,43,0.00
2013,03,26,02,44,0.00
2013,03,26,02,45,0.00
2013,03,26,02,46,0.00
2013,03,26,02,47,0.00
2013,03,26,02,48,0.00
2013,03,26,02,49,0.00
2013,03,26,02,50,0.00
2013,03,26,02,51,0.00
2013,03,26,02,52,0.00
2013,03,26,02,53,0.00
2013,03,26,02,54,0.00
2013,03,26,02,55,0.00
2013,03,26,02,56,0.00
2013,03,26,02,57,0.00
2013,03,26,02,58,0.00
2013,03,26,02,59,0.00
2013,03,26,03,00,0.00
2013,03,26,03,01,0.00
2013,03,26,03,02,0.00
2013,03,26,03,03,0.00
2013,03,26,03,04,0.00
2013,03,26,03,05,0.00
2013,03,26,03,06,0.00
2013,03,26,03,07,0.00
2013,03,26,03,08,0.00
2013,03,26,03,09,0.00
2013,03,26,03,10,0.00
2013,03,26,03,11,0.00
2013,03,26,03,12,0.00
2013,03,26,03,13,0.00
2013,03,26,03,14,0.00
2013,03,26,03,15,0.00
2013,03,26,03,16,0.00
2013,03,26,03,17,0.00
2013,03,26,03,18,0.00
2013,03,26,03,19,0.00
2013,03,26,03,20,0.00
2013,03,26,03,21,0.00
2013,03,26,03,22,0.00
2013,03,26,03,23,0.00
2013,03,26,03,24,0.00
2013,03,26,03,25,0.00
2013,03,26,03,26,0.00
2013,03,26,03,27,0.00
2013,03,26,03,28,0.00
2013,03,26,03,29,0.00
2013,03,26,03,30,0.00
2013,03,26,03,31,0.00
2013,03,26,03,32,0.00
2013,03,26,03,33,0.00
2013,03,26,03,34,0.00
2013,03,26,03,35,0.00
2013,03,26,03,36,0.00
2013,03,26,03,37,0.00
2013,03,26,03,38,0.00
2013,03,26,03,39,0.00
2013,03,26,03,40,0.00
2013,03,26,03,41,0.00
2013,03,26,03,42,0.00
2013,03,26,03,43,0.00
2013,03,26,03,44,0.00
2013,03,26,03,45,0.00
2013,03,26,03,46,0.00
2013,03,26,03,47,0.00
2013,03,26,03,48,0.00
2013,03,26,03,49,0.00
2013,03,26,03,50,0.00
2013,03,26,03,51,0.00
2013,03,26,03,52,0.00
2013,03,26,03,53,0.00
2013,03,26,03,54,0.00
2013,03,26,03,55,0.00
2013,03,26,03,56,0.00
2013,03,26,03,57,0.00
2013,03,26,03,58,0.00
2013,03,26,03,59,0.00
2013,03,26,04,00,0.00
2013,03,26,04,01,0.00
2013,03,26,04,02,0.00
2013,03,26,04,03,0.00
2013,03,26,04,04,0.00
2013,03,26,04,05,0.00
2013,03,26,04,06,0.00
2013,03,26,04,07,0.00
2013,03,26,04,08,0.00
2013,03,26,04,09,0.00
2013,03,26,04,10,0.00
2013,03,26,04,11,0.00
2013,03,26,04,12,0.00
2013,03,26,04,13,0.00
2013,03,26,04,14,0.00
2013,03,26,04,15,0.00
2013,03,26,04,16,0.00
2013,03,26,04,17,0.00
2013,03,26,04,18,0.00
2013,03,26,04,19,0.00
2013,03,26,04,20,0.00
2013,03,26,04,21,0.00
2013,03,26,04,22,0.00
2013,03,26,04,23,0.00
2013,03,26,04,24,0.00
2013,03,26,04,25,0.00
2013,03,26,04,26,0.00
2013,03,26,04,27,0.00
2013,03,26,04,28,0.00
2013,03,26,04,29,0.00
2013,03,26,04,30,0.00
2013,03,26,04,31,0.00
2013,03,26,04,32,0.00
2013,03,26,04,33,0.00
2013,03,26,04,34,0.00
2013,03,26,04,35,0.00
2013,03,26,04,36,0.00
2013,03,26,04,37,0.00
2013,03,26,04,38,0.00
2013,03,26,04,39,0.00
2013,03,26,04,40,0.00
2013,03,26,04,41,0.00
2013,03,26,04,42,0.00
2013,03,26,04,43,0.00
2013,03,26,04,44,0.00
2013,03,26,04,45,0.00
2013,03,26,04,46,0.00
2013,03,26,04,47,0.00
2013,03,26,04,48,0.00
2013,03,26,04,49,0.00
2013,03,26,04,50,0.00
2013,03,26,04,51,0.00
2013,03,26,04,52,0.00
2013,03,26,04,53,0.00
2013,03,26,04,54,0.00
2013,03,26,04,55,0.00
2013,03,26,04,56,0.00
2013,03,26,04,57,0.00
2013,03,26,04,58,0.00
2013,03,26,04,59,0.00
2013,03,26,05,00,0.00
2013,03,26,05,01,0.00
2013,03,26,05,02,0.00
2013,03,26,05,03,0.00
2013,03,26,05,04,0.00
2013,03,26,05,05,0.00
2013,03,26,05,06,0.00
2013,03,26,05,07,0.00
2013,03,26,05,08,0.00
2013,03,26,05,09,0.00
2013,03,26,05,10,0.00
2013,03,26,05,11,0.00
2013,03,26,05,12,0.00
2013,03,26,05,13,0.00
2013,03,26,05,14,0.00
2013,03,26,05,15,0.00
2013,03,26,05,16,0.00
2013,03,26,05,17,0.00
2013,03,26,05,18,0.00
2013,03,26,05,19,0.00
2013,03,26,05,20,0.00
2013,03,26,05,21,0.00
2013,03,26,05,22,0.00
2013,03,26,05,23,0.00
2013,03,26,05,24,0.00
2013,03,26,05,25,0.00
2013,03,26,05,26,0.00
2013,03,26,05,27,0.00
2013,03,26,05,28,0.00
2013,03,26,05,29,0.00
2013,03,26,05,30,0.00
2013,03,26,05,31,0.00
2013,03,26,05,32,0.00
2013,03,26,05,33,0.00
2013,03,26,05,34,0.00
2013,03,26,05,35,0.00
2013,03,26,05,36,0.00
2013,03,26,05,37,0.00
2013,03,26,05,38,0.00
2013,03,26,05,39,0.00
2013,03,26,05,40,0.00
2013,03,26,05,41,0.00
2013,03,26,05,42,0.00
2013,03,26,05,43,0.00
2013,03,26,05,44,0.00
2013,03,26,05,45,0.00
2013,03,26,05,46,0.00
2013,03,26,05,47,0.00
2013,03,26,05,48,0.00
2013,03,26,05,49,0.00
2013,03,26,05,50,0.00
2013,03,26,05,51,0.00
2013,03,26,05,52,0.00
2013,03,26,05,53,0.00
2013,03,26,05,54,0.00
2013,03,26,05,55,0.00
2013,03,26,05,56,0.00
2013,03,26,05,57,0.00
2013,03,26,05,58,0.00
2013,03,26,05,59,0.00
2013,03,26,06,00,0.00
2013,03,26,06,01,0.00
2013,03,26,06,02,0.00
2013,03,26,06,03,0.00
2013,03,26,06,04,0.00
2013,03,26,06,05,0.00
2013,03,26,06,06,0.00
2013,03,26,06,07,0.00
2013,03,26,06,08,0.00
2013,03,26,06,09,0.00
2013,03,26,06,10,0.00
2013,03,26,06,11,0.00
2013,03,26,06,12,0.00
2013,03,26,06,13,0.00
2013,03,26,06,14,0.00
2013,03,26,06,15,0.00
2013,03,26,06,16,0.00
2013,03,26,06,17,0.00
2013,03,26,06,18,0.00
2013,03,26,06,19,0.00
2013,03,26,06,20,0.00
2013,03,26,06,21,0.00
2013,03,26,06,22,0.00
2013,03,26,06,23,0.00
2013,03,26,06,24,0.00
2013,03,26,06,25,0.00
2013,03,26,06,26,0.00
2013,03,26,06,27,0.00
2013,03,26,06,28,0.00
2013,03,26,06,29,0.00
2013,03,26,06,30,0.00
2013,03,26,06,31,0.00
2013,03,26,06,32,0.00
2013,03,26,06,33,0.00
2013,03,26,06,34,0.00
2013,03,26,06,35,0.00
2013,03,26,06,36,0.00
2013,03,26,06,37,0.00
2013,03,26,06,38,0.00
2013,03,26,06,39,0.00
2013,03,26,06,40,0.00
2013,03,26,06,41,0.00
2013,03,26,06,42,0.00
2013,03,26,06,43,0.00
2013,03,26,06,44,0.00
2013,03,26,06,45,0.00
2013,03,26,06,46,0.00
2013,03,26,06,47,0.00
2013,03,26,06,48,0.00
2013,03,26,06,49,0.00
2013,03,26,06,50,0.00
2013,03,26,06,51,0.00
2013,03,26,06,52,0.00
2013,03,26,06,53,0.00
2013,03,26,06,54,0.00
2013,03,26,06,55,0.00
2013,03,26,06,56,0.00
2013,03,26,06,57,0.00
2013,03,26,06,58,0.00
2013,03,26,06,59,0.00
2013,03,26,07,00,0.00
2013,03,26,07,01,0.00
2013,03,26,07,02,0.00
2013,03,26,07,03,0.00
2013,03,26,07,04,0.00
2013,03,26,07,05,0.00
2013,03,26,07,06,0.00
2013,03,26,07,07,0.00
2013,03,26,07,08,0.00
2013,03,26,07,09,0.00
2013,03,26,07,10,0.00
2013,03,26,07,11,0.00
2013,03,26,07,12,0.00
2013,03,26,07,13,0.00
2013,03,26,07,14,0.00
2013,03,26,07,15,0.00
2013,03,26,07,16,0.00
2013,03,26,07,17,0.00
2013,03,26,07,18,0.00
2013,03,26,07,19,0.00
2013,03,26,07,20,0.00
2013,03,26,07,21,0.00
2013,03,26,07,22,0.00
2013,03,26,07,23,0.00
2013,03,26,07,24,0.00
2013,03,26,07,25,1.40
2013,03,26,07,26,5.00
2013,03,26,07,27,5.00
2013,03,26,07,28,6.20
2013,03,26,07,29,7.00
2013,03,26,07,30,7.00
2013,03,26,07,31,8.70
2013,03,26,07,32,9.00
2013,03,26,07,33,9.40
2013,03,26,07,34,11.00
2013,03,26,07,35,11.00
2013,03,26,07,36,11.00
2013,03,26,07,37,11.60
2013,03,26,07,38,12.00
2013,03,26,07,39,13.60
2013,03,26,07,40,14.00
2013,03,26,07,41,14.00
2013,03,26,07,42,14.50
2013,03,26,07,43,16.00
2013,03,26,07,44,16.00
2013,03,26,07,45,17.10
2013,03,26,07,46,18.00
2013,03,26,07,47,18.00
2013,03,26,07,48,18.90
2013,03,26,07,49,19.00
2013,03,26,07,50,19.30
2013,03,26,07,51,21.00
2013,03,26,07,52,21.00
2013,03,26,07,53,21.00
2013,03,26,07,54,22.20
2013,03,26,07,55,23.00
2013,03,26,07,56,23.00
2013,03,26,07,57,23.00
2013,03,26,07,58,23.00
2013,03,26,07,59,23.00
2013,03,26,08,00,23.70
2013,03,26,08,01,25.00
2013,03,26,08,02,25.60
2013,03,26,08,03,26.00
2013,03,26,08,04,26.00
2013,03,26,08,05,26.00
2013,03,26,08,06,27.90
2013,03,26,08,07,28.30
2013,03,26,08,08,30.50
2013,03,26,08,09,32.30
2013,03,26,08,10,33.90
2013,03,26,08,11,36.00
2013,03,26,08,12,38.40
2013,03,26,08,13,39.80
2013,03,26,08,14,41.80
2013,03,26,08,15,44.00
2013,03,26,08,16,44.30
2013,03,26,08,17,46.30
2013,03,26,08,18,47.80
2013,03,26,08,19,50.00
2013,03,26,08,20,52.30
2013,03,26,08,21,53.70
2013,03,26,08,22,55.60
2013,03,26,08,23,56.10
2013,03,26,08,24,58.00
2013,03,26,08,25,58.00
2013,03,26,08,26,58.70
2013,03,26,08,27,60.00
2013,03,26,08,28,61.10
2013,03,26,08,29,62.00
2013,03,26,08,30,62.00
2013,03,26,08,31,62.90
2013,03,26,08,32,62.00
2013,03,26,08,33,62.00
2013,03,26,08,34,62.00
2013,03,26,08,35,62.00
2013,03,26,08,36,62.00
2013,03,26,08,37,60.80
2013,03,26,08,38,60.00
2013,03,26,08,39,60.00
2013,03,26,08,40,58.30
2013,03,26,08,41,58.00
2013,03,26,08,42,58.00
2013,03,26,08,43,58.00
2013,03,26,08,44,58.00
2013,03,26,08,45,58.00
2013,03,26,08,46,59.30
2013,03,26,08,47,60.00
2013,03,26,08,48,61.70
2013,03,26,08,49,62.00
2013,03,26,08,50,63.30
2013,03,26,08,51,65.50
2013,03,26,08,52,67.70
2013,03,26,08,53,69.00
2013,03,26,08,54,69.60
2013,03,26,08,55,71.30
2013,03,26,08,56,73.60
2013,03,26,08,57,74.00
2013,03,26,08,58,76.10
2013,03,26,08,59,77.40
2013,03,26,09,00,79.00
2013,03,26,09,01,79.00
2013,03,26,09,02,79.00
2013,03,26,09,03,77.70
2013,03,26,09,04,76.30
2013,03,26,09,05,74.40
2013,03,26,09,06,72.20
2013,03,26,09,07,72.00
2013,03,26,09,08,72.50
2013,03,26,09,09,74.70
2013,03,26,09,10,76.40
2013,03,26,09,11,79.20
2013,03,26,09,12,82.90
2013,03,26,09,13,88.60
2013,03,26,09,14,92.60
2013,03,26,09,15,98.10
2013,03,26,09,16,102.80
2013,03,26,09,17,108.60
2013,03,26,09,18,115.90
2013,03,26,09,19,122.40
2013,03,26,09,20,127.90
2013,03,26,09,21,132.70
2013,03,26,09,22,136.40
2013,03,26,09,23,138.80
2013,03,26,09,24,139.00
2013,03,26,09,25,139.00
2013,03,26,09,26,139.00
2013,03,26,09,27,139.00
2013,03,26,09,28,139.00
2013,03,26,09,29,137.70
2013,03,26,09,30,135.50
2013,03,26,09,31,135.00
2013,03,26,09,32,133.90
2013,03,26,09,33,129.60
2013,03,26,09,34,126.50
2013,03,26,09,35,125.00
2013,03,26,09,36,125.90
2013,03,26,09,37,127.60
2013,03,26,09,38,129.40
2013,03,26,09,39,131.50
2013,03,26,09,40,132.00
2013,03,26,09,41,132.20
2013,03,26,09,42,134.20
2013,03,26,09,43,135.60
2013,03,26,09,44,138.60
2013,03,26,09,45,141.50
2013,03,26,09,46,144.50
2013,03,26,09,47,147.50
2013,03,26,09,48,150.40
2013,03,26,09,49,153.00
2013,03,26,09,50,156.30
2013,03,26,09,51,159.00
2013,03,26,09,52,163.00
2013,03,26,09,53,167.70
2013,03,26,09,54,172.60
2013,03,26,09,55,176.70
2013,03,26,09,56,180.30
2013,03,26,09,57,181.00
2013,03,26,09,58,183.00
2013,03,26,09,59,183.00
2013,03,26,10,00,183.00
2013,03,26,10,01,183.00
2013,03,26,10,02,183.00
2013,03,26,10,03,183.00
2013,03,26,10,04,181.60
2013,03,26,10,05,178.50
2013,03,26,10,06,174.40
2013,03,26,10,07,168.40
2013,03,26,10,08,165.00
2013,03,26,10,09,166.30
2013,03,26,10,10,171.20
2013,03,26,10,11,178.90
2013,03,26,10,12,189.70
2013,03,26,10,13,198.20
2013,03,26,10,14,206.00
2013,03,26,10,15,211.00
2013,03,26,10,16,214.70
2013,03,26,10,17,218.80
2013,03,26,10,18,223.20
2013,03,26,10,19,220.50
2013,03,26,10,20,212.20
2013,03,26,10,21,211.00
2013,03,26,10,22,209.40
2013,03,26,10,23,209.00
2013,03,26,10,24,209.00
2013,03,26,10,25,208.60
2013,03,26,10,26,206.70
2013,03,26,10,27,205.20
2013,03,26,10,28,204.00
2013,03,26,10,29,204.00
2013,03,26,10,30,205.50
2013,03,26,10,31,208.50
2013,03,26,10,32,213.80
2013,03,26,10,33,220.40
2013,03,26,10,34,223.90
2013,03,26,10,35,227.00
2013,03,26,10,36,228.00
2013,03,26,10,37,229.00
2013,03,26,10,38,229.00
2013,03,26,10,39,227.50
2013,03,26,10,40,227.00
2013,03,26,10,41,225.20
2013,03,26,10,42,227.40
2013,03,26,10,43,230.50
2013,03,26,10,44,238.90
2013,03,26,10,45,247.00
2013,03,26,10,46,246.80
2013,03,26,10,47,246.00
2013,03,26,10,48,246.00
2013,03,26,10,49,246.00
2013,03,26,10,50,244.00
2013,03,26,10,51,243.30
2013,03,26,10,52,239.30
2013,03,26,10,53,233.40
2013,03,26,10,54,228.40
2013,03,26,10,55,223.20
2013,03,26,10,56,220.30
2013,03,26,10,57,214.00
2013,03,26,10,58,209.00
2013,03,26,10,59,205.00
2013,03,26,11,00,198.60
2013,03,26,11,01,193.90
2013,03,26,11,02,191.00
2013,03,26,11,03,190.00
2013,03,26,11,04,191.40
2013,03,26,11,05,194.30
2013,03,26,11,06,196.80
2013,03,26,11,07,200.20
2013,03,26,11,08,202.40
2013,03,26,11,09,204.00
2013,03,26,11,10,204.00
2013,03,26,11,11,203.00
2013,03,26,11,12,200.00
2013,03,26,11,13,196.10
2013,03,26,11,14,193.40
2013,03,26,11,15,190.10
2013,03,26,11,16,189.70
2013,03,26,11,17,188.00
2013,03,26,11,18,188.70
2013,03,26,11,19,191.40
2013,03,26,11,20,196.50
2013,03,26,11,21,202.40
2013,03,26,11,22,209.60
2013,03,26,11,23,220.10
2013,03,26,11,24,231.30
2013,03,26,11,25,245.60
2013,03,26,11,26,255.70
2013,03,26,11,27,264.00
2013,03,26,11,28,269.50
2013,03,26,11,29,272.00
2013,03,26,11,30,273.40
2013,03,26,11,31,277.30
2013,03,26,11,32,276.10
2013,03,26,11,33,273.70
2013,03,26,11,34,272.00
2013,03,26,11,35,271.70
2013,03,26,11,36,271.00
2013,03,26,11,37,269.90
2013,03,26,11,38,269.00
2013,03,26,11,39,270.50
2013,03,26,11,40,273.60
2013,03,26,11,41,276.00
2013,03,26,11,42,279.00
2013,03,26,11,43,279.00
2013,03,26,11,44,278.60
2013,03,26,11,45,277.00
2013,03,26,11,46,274.80
2013,03,26,11,47,272.60
2013,03,26,11,48,272.00
2013,03,26,11,49,273.80
2013,03,26,11,50,278.40
2013,03,26,11,51,280.40
2013,03,26,11,52,278.00
2013,03,26,11,53,278.40
2013,03,26,11,54,278.50
2013,03,26,11,55,278.00
2013,03,26,11,56,278.00
2013,03,26,11,57,274.80
2013,03,26,11,58,269.20
2013,03,26,11,59,263.50
2013,03,26,12,00,260.00
2013,03,26,12,01,259.30
2013,03,26,12,02,256.60
2013,03,26,12,03,253.90
2013,03,26,12,04,251.00
2013,03,26,12,05,246.80
2013,03,26,12,06,244.30
2013,03,26,12,07,240.80
2013,03,26,12,08,239.00
2013,03,26,12,09,239.00
2013,03,26,12,10,238.20
2013,03,26,12,11,237.00
2013,03,26,12,12,237.00
2013,03,26,12,13,237.00
2013,03,26,12,14,238.60
2013,03,26,12,15,240.80
2013,03,26,12,16,243.40
2013,03,26,12,17,246.50
2013,03,26,12,18,248.70
2013,03,26,12,19,250.50
2013,03,26,12,20,252.10
2013,03,26,12,21,253.00
2013,03,26,12,22,251.50
2013,03,26,12,23,250.10
2013,03,26,12,24,248.00
2013,03,26,12,25,246.00
2013,03,26,12,26,245.40
2013,03,26,12,27,243.60
2013,03,26,12,28,243.00
2013,03,26,12,29,243.00
2013,03,26,12,30,243.00
2013,03,26,12,31,243.00
2013,03,26,12,32,241.20
2013,03,26,12,33,238.60
2013,03,26,12,34,235.60
2013,03,26,12,35,233.40
2013,03,26,12,36,231.20
2013,03,26,12,37,229.50
2013,03,26,12,38,229.00
2013,03,26,12,39,229.00
2013,03,26,12,40,229.80
2013,03,26,12,41,234.00
2013,03,26,12,42,239.70
2013,03,26,12,43,245.90
2013,03,26,12,44,254.30
2013,03,26,12,45,263.20
2013,03,26,12,46,271.90
2013,03,26,12,47,283.00
2013,03,26,12,48,296.70
2013,03,26,12,49,309.40
2013,03,26,12,50,322.90
2013,03,26,12,51,333.30
2013,03,26,12,52,341.10
2013,03,26,12,53,348.60
2013,03,26,12,54,355.50
2013,03,26,12,55,357.80
2013,03,26,12,56,355.60
2013,03,26,12,57,356.60
2013,03,26,12,58,357.00
2013,03,26,12,59,356.70
2013,03,26,13,00,354.50
2013,03,26,13,01,352.00
2013,03,26,13,02,341.80
2013,03,26,13,03,321.60
2013,03,26,13,04,301.50
2013,03,26,13,05,283.20
2013,03,26,13,06,266.90
2013,03,26,13,07,250.70
2013,03,26,13,08,239.00
2013,03,26,13,09,227.50
2013,03,26,13,10,219.20
2013,03,26,13,11,213.60
2013,03,26,13,12,209.80
2013,03,26,13,13,209.00
2013,03,26,13,14,209.00
2013,03,26,13,15,210.80
2013,03,26,13,16,213.30
2013,03,26,13,17,217.10
2013,03,26,13,18,222.90
2013,03,26,13,19,230.00
2013,03,26,13,20,239.20
2013,03,26,13,21,251.10
2013,03,26,13,22,262.30
2013,03,26,13,23,274.10
2013,03,26,13,24,286.80
2013,03,26,13,25,294.40
2013,03,26,13,26,297.50
2013,03,26,13,27,299.70
2013,03,26,13,28,301.00
2013,03,26,13,29,302.70
2013,03,26,13,30,307.40
2013,03,26,13,31,314.40
2013,03,26,13,32,321.20
2013,03,26,13,33,325.00
2013,03,26,13,34,324.60
2013,03,26,13,35,323.00
2013,03,26,13,36,324.60
2013,03,26,13,37,330.50
2013,03,26,13,38,339.50
2013,03,26,13,39,350.30
2013,03,26,13,40,363.50
2013,03,26,13,41,375.40
2013,03,26,13,42,383.50
2013,03,26,13,43,386.00
2013,03,26,13,44,380.10
2013,03,26,13,45,368.80
2013,03,26,13,46,356.50
2013,03,26,13,47,345.00
2013,03,26,13,48,334.00
2013,03,26,13,49,324.20
2013,03,26,13,50,316.00
2013,03,26,13,51,307.80
2013,03,26,13,52,300.10
2013,03,26,13,53,293.80
2013,03,26,13,54,290.00
2013,03,26,13,55,288.00
2013,03,26,13,56,289.40
2013,03,26,13,57,293.10
2013,03,26,13,58,296.70
2013,03,26,13,59,299.00
2013,03,26,14,00,298.60
2013,03,26,14,01,296.00
2013,03,26,14,02,292.20
2013,03,26,14,03,288.40
2013,03,26,14,04,285.70
2013,03,26,14,05,285.00
2013,03,26,14,06,286.60
2013,03,26,14,07,289.90
2013,03,26,14,08,290.00
2013,03,26,14,09,289.50
2013,03,26,14,10,287.60
2013,03,26,14,11,284.10
2013,03,26,14,12,278.00
2013,03,26,14,13,273.30
2013,03,26,14,14,269.60
2013,03,26,14,15,267.30
2013,03,26,14,16,263.60
2013,03,26,14,17,259.10
2013,03,26,14,18,253.50
2013,03,26,14,19,247.50
2013,03,26,14,20,241.50
2013,03,26,14,21,237.20
2013,03,26,14,22,231.70
2013,03,26,14,23,229.20
2013,03,26,14,24,225.30
2013,03,26,14,25,222.70
2013,03,26,14,26,220.80
2013,03,26,14,27,220.00
2013,03,26,14,28,220.00
2013,03,26,14,29,220.60
2013,03,26,14,30,224.90
2013,03,26,14,31,234.00
2013,03,26,14,32,246.40
2013,03,26,14,33,262.60
2013,03,26,14,34,278.20
2013,03,26,14,35,290.60
2013,03,26,14,36,299.70
2013,03,26,14,37,306.50
2013,03,26,14,38,311.40
2013,03,26,14,39,313.00
2013,03,26,14,40,309.80
2013,03,26,14,41,304.50
2013,03,26,14,42,296.10
2013,03,26,14,43,286.00
2013,03,26,14,44,276.50
2013,03,26,14,45,266.20
2013,03,26,14,46,255.10
2013,03,26,14,47,245.90
2013,03,26,14,48,236.30
2013,03,26,14,49,228.00
2013,03,26,14,50,220.00
2013,03,26,14,51,212.20
2013,03,26,14,52,206.20
2013,03,26,14,53,202.50
2013,03,26,14,54,199.50
2013,03,26,14,55,198.00
2013,03,26,14,56,197.00
2013,03,26,14,57,197.00
2013,03,26,14,58,197.00
2013,03,26,14,59,199.00
2013,03,26,15,00,199.50
2013,03,26,15,01,202.60
2013,03,26,15,02,205.20
2013,03,26,15,03,209.10
2013,03,26,15,04,212.80
2013,03,26,15,05,216.90
2013,03,26,15,06,220.50
2013,03,26,15,07,224.80
2013,03,26,15,08,229.40
2013,03,26,15,09,232.90
2013,03,26,15,10,236.00
2013,03,26,15,11,236.00
2013,03,26,15,12,234.90
2013,03,26,15,13,230.70
2013,03,26,15,14,225.90
2013,03,26,15,15,220.70
2013,03,26,15,16,214.00
2013,03,26,15,17,210.10
2013,03,26,15,18,204.90
2013,03,26,15,19,201.20
2013,03,26,15,20,200.00
2013,03,26,15,21,200.00
2013,03,26,15,22,201.40
2013,03,26,15,23,205.30
2013,03,26,15,24,208.70
2013,03,26,15,25,209.20
2013,03,26,15,26,211.70
2013,03,26,15,27,215.30
2013,03,26,15,28,219.10
2013,03,26,15,29,222.10
2013,03,26,15,30,221.70
2013,03,26,15,31,220.30
2013,03,26,15,32,216.50
2013,03,26,15,33,211.00
2013,03,26,15,34,206.60
2013,03,26,15,35,204.00
2013,03,26,15,36,203.30
2013,03,26,15,37,202.00
2013,03,26,15,38,203.20
2013,03,26,15,39,204.00
2013,03,26,15,40,204.00
2013,03,26,15,41,200.40
2013,03,26,15,42,196.60
2013,03,26,15,43,191.50
2013,03,26,15,44,184.00
2013,03,26,15,45,176.10
2013,03,26,15,46,168.30
2013,03,26,15,47,159.50
2013,03,26,15,48,155.30
2013,03,26,15,49,150.10
2013,03,26,15,50,144.30
2013,03,26,15,51,140.20
2013,03,26,15,52,132.40
2013,03,26,15,53,113.40
2013,03,26,15,54,92.10
2013,03,26,15,55,90.40
2013,03,26,15,56,90.00
2013,03,26,15,57,90.80
2013,03,26,15,58,92.70
2013,03,26,15,59,95.00
2013,03,26,16,00,103.00
2013,03,26,16,01,130.00
2013,03,26,16,02,130.00
2013,03,26,16,03,130.00
2013,03,26,16,04,132.50
2013,03,26,16,05,136.20
2013,03,26,16,06,141.10
2013,03,26,16,07,145.60
2013,03,26,16,08,156.00
2013,03,26,16,09,165.50
2013,03,26,16,10,177.50
2013,03,26,16,11,190.20
2013,03,26,16,12,202.20
2013,03,26,16,13,215.30
2013,03,26,16,14,227.70
2013,03,26,16,15,237.80
2013,03,26,16,16,243.90
2013,03,26,16,17,245.70
2013,03,26,16,18,243.30
2013,03,26,16,19,240.20
2013,03,26,16,20,236.70
2013,03,26,16,21,230.00
2013,03,26,16,22,223.00
2013,03,26,16,23,214.50
2013,03,26,16,24,206.60
2013,03,26,16,25,196.10
2013,03,26,16,26,186.20
2013,03,26,16,27,175.90
2013,03,26,16,28,167.30
2013,03,26,16,29,158.20
2013,03,26,16,30,151.40
2013,03,26,16,31,145.40
2013,03,26,16,32,138.30
2013,03,26,16,33,134.10
2013,03,26,16,34,129.60
2013,03,26,16,35,126.50
2013,03,26,16,36,123.70
2013,03,26,16,37,120.50
2013,03,26,16,38,119.00
2013,03,26,16,39,116.70
2013,03,26,16,40,116.00
2013,03,26,16,41,116.00
2013,03,26,16,42,117.90
2013,03,26,16,43,118.40
2013,03,26,16,44,120.30
2013,03,26,16,45,121.70
2013,03,26,16,46,125.10
2013,03,26,16,47,127.00
2013,03,26,16,48,134.00
2013,03,26,16,49,142.70
2013,03,26,16,50,150.60
2013,03,26,16,51,156.30
2013,03,26,16,52,158.80
2013,03,26,16,53,162.00
2013,03,26,16,54,160.20
2013,03,26,16,55,155.40
2013,03,26,16,56,148.70
2013,03,26,16,57,139.20
2013,03,26,16,58,129.20
2013,03,26,16,59,117.90
2013,03,26,17,00,105.70
2013,03,26,17,01,96.20
2013,03,26,17,02,89.90
2013,03,26,17,03,86.10
2013,03,26,17,04,82.30
2013,03,26,17,05,79.60
2013,03,26,17,06,77.40
2013,03,26,17,07,76.10
2013,03,26,17,08,75.80
2013,03,26,17,09,74.40
2013,03,26,17,10,76.00
2013,03,26,17,11,77.20
2013,03,26,17,12,80.10
2013,03,26,17,13,82.90
2013,03,26,17,14,90.50
2013,03,26,17,15,101.80
2013,03,26,17,16,112.50
2013,03,26,17,17,122.20
2013,03,26,17,18,131.20